Status Flugplatz

Der Flugplatz ist offen
PPR Regelung ! PJE !!!

123.15 MHz
RWY 05/23

flüger beizli - Öffnungszeiten
Freitag ab 16:00
Samstag +Sonntag ab 11:00
Bei schönem Wetter öffnen wir früher! Tel.: 079 234 07 74

Herzlich willkommen auf der Homepage des Flugplatz Biel-Kappelen

Wir freuen uns über Ihren Besuch auf unserem schönen Flugplatz im Berner Seeland. Ob zu Fuss, per Velo, Motorrad, Auto oder Flugzeug Sie sind uns jederzeit herzlich willkommen. 


 

 

Wetter Kappelen

 


 

[source: ADDS]
METAR
LSZG 061920Z AUTO 04003KT 0100 FZFG VV001 M01/M01 Q1031 =
TAF
TAF LSZG 061425Z 0615/0624 VRB03KT 0500 FG VV002 BECMG 0616/0619 0200 FZFG VV001 =
SR / SS: 07:04 / 15:42 UTC ( 2016-12-06)

 


 

Besucherzähler

HeuteHeute51
Seit BeginnSeit Beginn76984
Guests 2

Flugplatz Biel-Kappelen LSZP - 123.15MHz - 032 384 46 84

Email: Diese E-Mail-Adresse ist vor Spambots geschützt! Zur Anzeige muss JavaScript eingeschaltet sein!
www.lszp.ch
2016 © by mb

Zum Anfang